^^

Weather Underground History

Daily Summary for February 24, 2018 Units:  Metric    English   Both
Daily Weekly Monthly Yearly
  High: Low: Average:
Temperature: 12 °C 4 °C 7.3 °C
Dew Point: 10 °C 2 °C 5.4 °C
Humidity: 92% 85% 89%
Wind Speed: 42km/h 0km/h 15.7km/h
Wind Gust: 51km/h - -
Wind- - SW
Pressure: 1006.8 hPa 994.2 hPa -
Precipitation: 5.6 mm    
 
 
Tabular Data for February 24, 2018
Time Temperature Dew Point Pressure Wind Wind Speed Wind Gust Humidity Rainfall Rate (Hourly) solar
00:00 8 °C 7 °C 1006.8 hPa SSW 14 km/h 23 km/h 90% 0.0 mm 0 W/m2
00:05 8 °C 7 °C 1006.8 hPa South 8 km/h 24 km/h 91% 0.0 mm 0 W/m2
00:10 8 °C 7 °C 1006.4 hPa SSW 13 km/h 21 km/h 91% 0.0 mm 0 W/m2
00:15 8 °C 7 °C 1006.4 hPa SSW 14 km/h 24 km/h 91% 0.0 mm 0 W/m2
00:20 8 °C 7 °C 1006.4 hPa SSW 8 km/h 23 km/h 91% 0.0 mm 0 W/m2
00:25 8 °C 7 °C 1006.1 hPa South 11 km/h 24 km/h 91% 0.0 mm 0 W/m2
00:30 8 °C 7 °C 1006.1 hPa South 16 km/h 32 km/h 91% 0.0 mm 0 W/m2
00:35 8 °C 7 °C 1005.8 hPa SSW 13 km/h 24 km/h 91% 0.0 mm 0 W/m2
00:40 8 °C 7 °C 1005.8 hPa SSW 23 km/h 23 km/h 91% 0.0 mm 0 W/m2
00:50 8 °C 7 °C 1005.4 hPa SSE 14 km/h 31 km/h 91% 0.0 mm 0 W/m2
00:55 8 °C 7 °C 1005.4 hPa SSW 13 km/h 27 km/h 91% 0.0 mm 0 W/m2
01:05 8 °C 7 °C 1005.1 hPa SSW 14 km/h 24 km/h 91% 0.0 mm 0 W/m2
01:10 8 °C 7 °C 1005.1 hPa SSW 23 km/h 27 km/h 91% 0.0 mm 0 W/m2
01:15 8 °C 7 °C 1004.7 hPa SSW 13 km/h 27 km/h 91% 0.0 mm 0 W/m2
01:20 8 °C 7 °C 1004.7 hPa West 11 km/h 19 km/h 91% 0.0 mm 0 W/m2
01:25 8 °C 7 °C 1004.7 hPa South 16 km/h 24 km/h 91% 0.0 mm 0 W/m2
01:30 8 °C 7 °C 1004.7 hPa South 16 km/h 34 km/h 91% 0.0 mm 0 W/m2
01:35 9 °C 7 °C 1004.4 hPa SSE 14 km/h 24 km/h 91% 0.0 mm 0 W/m2
01:40 9 °C 7 °C 1004.4 hPa SSW 14 km/h 23 km/h 90% 0.0 mm 0 W/m2
01:45 9 °C 7 °C 1004.4 hPa SSW 18 km/h 26 km/h 90% 0.0 mm 0 W/m2
01:50 9 °C 7 °C 1004.4 hPa SSE 16 km/h 24 km/h 90% 0.0 mm 0 W/m2
01:55 9 °C 7 °C 1004.4 hPa South 27 km/h 27 km/h 90% 0.0 mm 0 W/m2
02:01 9 °C 7 °C 1004.4 hPa SSW 13 km/h 29 km/h 90% 0.0 mm 0 W/m2
02:06 8 °C 7 °C 1004.4 hPa SSW 8 km/h 26 km/h 90% 0.0 mm 0 W/m2
02:13 8 °C 7 °C 1004.1 hPa South 19 km/h 27 km/h 90% 0.0 mm 0 W/m2
02:18 8 °C 7 °C 1003.7 hPa SW 14 km/h 24 km/h 91% 0.0 mm 0 W/m2
02:28 8 °C 7 °C 1003.7 hPa South 6 km/h 19 km/h 91% 0.0 mm 0 W/m2
02:33 8 °C 7 °C 1003.4 hPa SSE 14 km/h 35 km/h 91% 0.0 mm 0 W/m2
02:38 8 °C 7 °C 1003.4 hPa SSW 18 km/h 27 km/h 91% 0.0 mm 0 W/m2
02:43 8 °C 7 °C 1003.0 hPa SW 11 km/h 23 km/h 91% 0.0 mm 0 W/m2
02:48 8 °C 7 °C 1002.7 hPa South 19 km/h 23 km/h 91% 0.0 mm 0 W/m2
02:58 8 °C 7 °C 1002.7 hPa SSW 13 km/h 23 km/h 91% 0.0 mm 0 W/m2
03:08 8 °C 7 °C 1002.4 hPa SSW 11 km/h 27 km/h 91% 0.0 mm 0 W/m2
03:13 9 °C 7 °C 1002.0 hPa South 13 km/h 37 km/h 91% 0.0 mm 0 W/m2
03:18 9 °C 7 °C 1002.0 hPa SSW 21 km/h 26 km/h 90% 0.0 mm 0 W/m2
03:23 9 °C 7 °C 1002.0 hPa SW 21 km/h 34 km/h 90% 0.0 mm 0 W/m2
03:28 9 °C 7 °C 1001.7 hPa SSE 16 km/h 27 km/h 90% 0.0 mm 0 W/m2
03:33 9 °C 8 °C 1001.7 hPa SSW 24 km/h 48 km/h 90% 0.0 mm 0 W/m2
03:43 9 °C 8 °C 1001.4 hPa SSW 11 km/h 27 km/h 89% 0.0 mm 0 W/m2
03:48 9 °C 8 °C 1001.0 hPa South 13 km/h 34 km/h 89% 0.0 mm 0 W/m2
03:58 9 °C 8 °C 1001.0 hPa South 10 km/h 26 km/h 89% 0.0 mm 0 W/m2
04:03 9 °C 8 °C 1000.7 hPa SSE 13 km/h 29 km/h 89% 0.0 mm 0 W/m2
04:08 10 °C 8 °C 1000.3 hPa SW 16 km/h 40 km/h 89% 0.0 mm 0 W/m2
04:13 10 °C 8 °C 1000.3 hPa SW 13 km/h 24 km/h 88% 0.0 mm 0 W/m2
04:18 10 °C 8 °C 1000.3 hPa SE 29 km/h 39 km/h 88% 0.0 mm 0 W/m2
04:23 10 °C 8 °C 1000.0 hPa SW 11 km/h 32 km/h 88% 0.0 mm 0 W/m2
04:33 10 °C 8 °C 999.7 hPa SSW 13 km/h 39 km/h 88% 0.0 mm 0 W/m2
04:38 10 °C 8 °C 999.3 hPa SW 10 km/h 35 km/h 88% 0.0 mm 0 W/m2
04:43 11 °C 8 °C 999.0 hPa SSW 21 km/h 37 km/h 88% 0.0 mm 0 W/m2
04:48 11 °C 8 °C 999.0 hPa SSW 31 km/h 34 km/h 88% 0.0 mm 0 W/m2
05:03 11 °C 9 °C 998.3 hPa SW 27 km/h 35 km/h 88% 0.0 mm 0 W/m2
05:13 11 °C 9 °C 998.3 hPa South 18 km/h 47 km/h 88% 0.0 mm 0 W/m2
05:18 11 °C 9 °C 998.3 hPa SW 19 km/h 37 km/h 88% 0.0 mm 0 W/m2
05:28 11 °C 9 °C 998.0 hPa South 24 km/h 34 km/h 88% 0.0 mm 0 W/m2
05:33 11 °C 9 °C 998.0 hPa SSW 23 km/h 31 km/h 88% 0.0 mm 0 W/m2
05:38 11 °C 9 °C 997.6 hPa SSW 14 km/h 39 km/h 88% 0.0 mm 0 W/m2
05:43 11 °C 9 °C 997.3 hPa SW 16 km/h 32 km/h 88% 0.0 mm 0 W/m2
05:48 11 °C 9 °C 997.3 hPa SSW 42 km/h 45 km/h 87% 0.0 mm 0 W/m2
05:53 11 °C 9 °C 997.3 hPa SSW 16 km/h 39 km/h 87% 0.0 mm 0 W/m2
06:03 12 °C 9 °C 997.3 hPa SSW 16 km/h 43 km/h 87% 0.0 mm 0 W/m2
06:08 12 °C 9 °C 997.0 hPa SW 24 km/h 47 km/h 87% 0.0 mm 0 W/m2
06:13 12 °C 9 °C 996.6 hPa SW 23 km/h 27 km/h 87% 0.0 mm 0 W/m2
06:18 12 °C 9 °C 996.6 hPa SW 37 km/h 39 km/h 87% 0.0 mm 0 W/m2
06:28 12 °C 9 °C 996.3 hPa SW 19 km/h 39 km/h 87% 0.0 mm 0 W/m2
06:33 12 °C 9 °C 996.3 hPa SSW 19 km/h 39 km/h 87% 0.0 mm 0 W/m2
06:43 12 °C 9 °C 995.9 hPa SSW 16 km/h 50 km/h 87% 0.0 mm 0 W/m2
06:48 12 °C 9 °C 995.9 hPa South 39 km/h 39 km/h 87% 0.0 mm 0 W/m2
06:53 12 °C 9 °C 995.6 hPa SSW 39 km/h 51 km/h 87% 0.0 mm 0 W/m2
07:08 12 °C 9 °C 995.3 hPa SW 26 km/h 37 km/h 86% 0.0 mm 0 W/m2
07:13 12 °C 10 °C 995.3 hPa SW 29 km/h 35 km/h 87% 0.0 mm 0 W/m2
07:18 12 °C 10 °C 994.9 hPa West 14 km/h 39 km/h 87% 0.0 mm 0 W/m2
07:23 12 °C 10 °C 994.9 hPa South 14 km/h 40 km/h 87% 0.0 mm 0 W/m2
07:28 12 °C 10 °C 994.9 hPa SW 31 km/h 32 km/h 87% 0.0 mm 0 W/m2
07:33 12 °C 10 °C 994.6 hPa SSW 31 km/h 40 km/h 87% 0.0 mm 0 W/m2
07:43 12 °C 10 °C 994.2 hPa SSW 16 km/h 48 km/h 88% 0.0 mm 0 W/m2
07:48 12 °C 10 °C 994.2 hPa WSW 23 km/h 32 km/h 88% 0.0 mm 0 W/m2
07:53 12 °C 10 °C 994.2 hPa South 23 km/h 35 km/h 88% 0.0 mm 0 W/m2
07:58 12 °C 10 °C 994.2 hPa WSW 35 km/h 40 km/h 88% 0.0 mm 0 W/m2
08:03 12 °C 10 °C 995.6 hPa West 37 km/h 37 km/h 89% 10.7 mm 0 W/m2
08:08 11 °C 8 °C 996.3 hPa WSW 19 km/h 42 km/h 88% 2.0 mm 0 W/m2
08:13 9 °C 8 °C 996.3 hPa WSW 31 km/h 42 km/h 89% 1.0 mm 0 W/m2
08:18 9 °C 7 °C 996.3 hPa WSW 37 km/h 43 km/h 90% 1.0 mm 0 W/m2
08:28 8 °C 7 °C 996.6 hPa WSW 14 km/h 35 km/h 90% 2.0 mm 7 W/m2
08:33 8 °C 7 °C 996.6 hPa WSW 21 km/h 40 km/h 90% 3.0 mm 19 W/m2
08:38 8 °C 6 °C 996.6 hPa West 26 km/h 35 km/h 90% 2.0 mm 21 W/m2
08:43 8 °C 7 °C 996.6 hPa West 26 km/h 29 km/h 91% 2.3 mm 30 W/m2
08:53 8 °C 6 °C 996.6 hPa WSW 21 km/h 29 km/h 91% 1.0 mm 12 W/m2
09:03 7 °C 6 °C 996.6 hPa WSW 16 km/h 29 km/h 91% 3.0 mm 18 W/m2
09:08 7 °C 6 °C 997.0 hPa WSW 24 km/h 31 km/h 91% 2.3 mm 14 W/m2
09:13 7 °C 6 °C 997.0 hPa West 19 km/h 29 km/h 91% 1.3 mm 16 W/m2
09:18 7 °C 6 °C 997.0 hPa West 16 km/h 39 km/h 91% 2.3 mm 19 W/m2
09:23 7 °C 6 °C 997.0 hPa WSW 23 km/h 31 km/h 92% 2.3 mm 16 W/m2
09:33 7 °C 6 °C 996.6 hPa West 23 km/h 31 km/h 92% 0.8 mm 18 W/m2
09:38 7 °C 6 °C 997.0 hPa WSW 27 km/h 35 km/h 92% 0.0 mm 11 W/m2
09:43 7 °C 6 °C 996.6 hPa WSW 18 km/h 39 km/h 92% 0.0 mm 16 W/m2
09:48 7 °C 6 °C 996.6 hPa SW 18 km/h 26 km/h 92% 0.0 mm 16 W/m2
09:53 7 °C 6 °C 996.3 hPa WSW 16 km/h 26 km/h 92% 0.0 mm 16 W/m2
09:58 7 °C 6 °C 996.6 hPa WSW 24 km/h 27 km/h 92% 0.0 mm 21 W/m2
10:03 7 °C 6 °C 997.0 hPa WSW 23 km/h 34 km/h 92% 0.0 mm 18 W/m2
10:08 7 °C 6 °C 997.0 hPa WSW 10 km/h 34 km/h 91% 0.0 mm 16 W/m2
10:13 7 °C 6 °C 997.3 hPa SW 23 km/h 29 km/h 91% 2.0 mm 9 W/m2
10:18 7 °C 6 °C 997.6 hPa WSW 34 km/h 34 km/h 91% 1.8 mm 12 W/m2
10:23 7 °C 6 °C 997.6 hPa WSW 14 km/h 37 km/h 91% 1.0 mm 14 W/m2
10:28 7 °C 6 °C 997.3 hPa SW 21 km/h 39 km/h 91% 0.8 mm 14 W/m2
10:33 7 °C 6 °C 997.6 hPa WSW 23 km/h 32 km/h 91% 2.3 mm 19 W/m2
10:38 7 °C 5 °C 997.6 hPa WSW 32 km/h 40 km/h 91% 2.0 mm 25 W/m2
10:43 7 °C 5 °C 997.3 hPa SW 16 km/h 21 km/h 91% 1.0 mm 18 W/m2
10:48 7 °C 5 °C 997.3 hPa West 18 km/h 48 km/h 91% 0.8 mm 26 W/m2
10:53 7 °C 5 °C 997.3 hPa WSW 19 km/h 26 km/h 91% 0.0 mm 33 W/m2
10:58 7 °C 5 °C 998.0 hPa SW 24 km/h 31 km/h 91% 0.0 mm 19 W/m2
11:03 7 °C 5 °C 998.0 hPa WSW 16 km/h 21 km/h 91% 0.0 mm 37 W/m2
11:08 7 °C 5 °C 998.0 hPa WSW 18 km/h 24 km/h 91% 0.0 mm 44 W/m2
11:13 7 °C 5 °C 998.0 hPa WSW 26 km/h 26 km/h 91% 0.0 mm 30 W/m2
11:18 7 °C 5 °C 998.3 hPa WSW 10 km/h 27 km/h 91% 0.0 mm 23 W/m2
11:23 7 °C 5 °C 998.6 hPa WSW 14 km/h 23 km/h 91% 1.0 mm 26 W/m2
11:28 7 °C 5 °C 998.6 hPa SW 31 km/h 35 km/h 92% 1.3 mm 28 W/m2
11:33 7 °C 5 °C 998.0 hPa SW 11 km/h 37 km/h 92% 1.3 mm 58 W/m2
11:38 7 °C 5 °C 997.6 hPa SW 11 km/h 31 km/h 91% 1.3 mm 83 W/m2
11:43 7 °C 5 °C 997.6 hPa WSW 19 km/h 34 km/h 91% 0.8 mm 93 W/m2
11:48 7 °C 5 °C 998.0 hPa WSW 24 km/h 24 km/h 91% 0.0 mm 76 W/m2
11:53 7 °C 5 °C 998.0 hPa WSW 19 km/h 31 km/h 90% 0.0 mm 74 W/m2
11:58 7 °C 5 °C 998.0 hPa WSW 26 km/h 31 km/h 89% 0.0 mm 47 W/m2
12:03 7 °C 4 °C 997.6 hPa WSW 16 km/h 26 km/h 88% 0.0 mm 37 W/m2
12:08 7 °C 4 °C 997.6 hPa WNW 18 km/h 27 km/h 88% 0.0 mm 46 W/m2
12:13 7 °C 4 °C 998.0 hPa SW 21 km/h 26 km/h 88% 0.0 mm 51 W/m2
12:18 7 °C 4 °C 998.0 hPa SW 24 km/h 32 km/h 88% 0.0 mm 84 W/m2
12:23 7 °C 4 °C 997.6 hPa SW 19 km/h 37 km/h 87% 0.0 mm 70 W/m2
12:28 7 °C 4 °C 997.3 hPa SSW 8 km/h 19 km/h 86% 0.0 mm 47 W/m2
12:33 7 °C 4 °C 998.0 hPa SW 21 km/h 27 km/h 87% 0.0 mm 47 W/m2
12:38 7 °C 4 °C 998.0 hPa SW 24 km/h 29 km/h 87% 0.0 mm 46 W/m2
12:43 7 °C 4 °C 997.6 hPa SW 18 km/h 27 km/h 87% 0.0 mm 40 W/m2
12:48 7 °C 4 °C 998.0 hPa SSW 14 km/h 31 km/h 87% 0.0 mm 19 W/m2
12:53 7 °C 4 °C 998.0 hPa SSW 16 km/h 31 km/h 88% 0.0 mm 30 W/m2
12:58 7 °C 4 °C 997.6 hPa WSW 16 km/h 21 km/h 88% 0.0 mm 40 W/m2
13:03 7 °C 4 °C 997.6 hPa SSW 14 km/h 27 km/h 88% 0.0 mm 49 W/m2
13:08 7 °C 4 °C 997.6 hPa SSW 8 km/h 18 km/h 88% 0.0 mm 32 W/m2
13:13 7 °C 4 °C 998.0 hPa SSW 27 km/h 37 km/h 88% 0.0 mm 28 W/m2
13:18 7 °C 4 °C 997.6 hPa WSW 19 km/h 32 km/h 87% 0.0 mm 33 W/m2
13:23 7 °C 4 °C 997.6 hPa SW 14 km/h 23 km/h 87% 0.0 mm 39 W/m2
13:28 7 °C 4 °C 997.3 hPa WSW 14 km/h 24 km/h 87% 0.0 mm 60 W/m2
13:33 7 °C 4 °C 997.0 hPa SW 14 km/h 21 km/h 87% 0.0 mm 37 W/m2
13:38 7 °C 4 °C 997.3 hPa SW 18 km/h 34 km/h 88% 0.0 mm 42 W/m2
13:43 7 °C 4 °C 997.6 hPa SW 23 km/h 32 km/h 88% 0.0 mm 44 W/m2
13:48 7 °C 4 °C 998.0 hPa SSW 16 km/h 31 km/h 88% 0.0 mm 39 W/m2
13:53 7 °C 4 °C 997.6 hPa SW 21 km/h 29 km/h 87% 0.0 mm 70 W/m2
13:58 7 °C 4 °C 997.6 hPa SW 18 km/h 34 km/h 87% 0.0 mm 81 W/m2
14:08 7 °C 5 °C 997.6 hPa WSW 29 km/h 29 km/h 87% 0.0 mm 62 W/m2
14:13 7 °C 5 °C 997.6 hPa SW 21 km/h 23 km/h 87% 0.0 mm 79 W/m2
14:18 7 °C 5 °C 997.6 hPa SSW 26 km/h 32 km/h 87% 0.0 mm 67 W/m2
14:23 7 °C 5 °C 997.6 hPa SSW 13 km/h 23 km/h 87% 0.0 mm 63 W/m2
14:28 7 °C 5 °C 998.0 hPa WSW 14 km/h 31 km/h 86% 0.0 mm 58 W/m2
14:33 7 °C 5 °C 997.6 hPa WSW 18 km/h 26 km/h 86% 0.0 mm 49 W/m2
14:38 7 °C 5 °C 997.6 hPa SW 10 km/h 23 km/h 86% 0.0 mm 39 W/m2
14:43 7 °C 5 °C 997.6 hPa SW 10 km/h 27 km/h 86% 0.0 mm 32 W/m2
14:53 7 °C 5 °C 998.0 hPa SW 14 km/h 19 km/h 86% 0.0 mm 67 W/m2
14:58 7 °C 5 °C 998.0 hPa SW 18 km/h 23 km/h 86% 0.0 mm 67 W/m2
15:03 7 °C 5 °C 998.3 hPa SW 19 km/h 19 km/h 86% 0.0 mm 60 W/m2
15:08 7 °C 5 °C 998.0 hPa SW 16 km/h 29 km/h 87% 0.0 mm 62 W/m2
15:13 7 °C 5 °C 998.0 hPa SSW 8 km/h 21 km/h 87% 0.0 mm 46 W/m2
15:18 7 °C 5 °C 997.6 hPa SSW 13 km/h 23 km/h 87% 0.0 mm 47 W/m2
15:23 7 °C 5 °C 997.6 hPa SW 8 km/h 19 km/h 87% 0.0 mm 44 W/m2
15:33 7 °C 5 °C 998.0 hPa SW 14 km/h 27 km/h 87% 0.0 mm 53 W/m2
15:38 7 °C 5 °C 997.6 hPa SSW 14 km/h 26 km/h 87% 0.0 mm 33 W/m2
15:43 7 °C 5 °C 998.0 hPa South 18 km/h 19 km/h 87% 0.0 mm 16 W/m2
15:48 7 °C 5 °C 998.0 hPa WSW 14 km/h 27 km/h 87% 0.0 mm 9 W/m2
15:53 7 °C 5 °C 998.3 hPa SSW 14 km/h 23 km/h 87% 0.0 mm 5 W/m2
15:58 7 °C 5 °C 998.3 hPa SW 16 km/h 24 km/h 88% 0.0 mm 7 W/m2
16:03 7 °C 5 °C 998.0 hPa SW 11 km/h 21 km/h 88% 0.0 mm 7 W/m2
16:06 7 °C 5 °C 998.0 hPa SSW 16 km/h 21 km/h 88% 0.0 mm 11 W/m2
16:11 7 °C 5 °C 998.0 hPa WSW 11 km/h 18 km/h 89% 0.0 mm 16 W/m2
16:16 7 °C 5 °C 998.3 hPa SW 8 km/h 23 km/h 89% 0.0 mm 16 W/m2
16:21 7 °C 5 °C 998.3 hPa SSW 11 km/h 26 km/h 89% 0.0 mm 5 W/m2
16:26 7 °C 5 °C 998.3 hPa SW 14 km/h 29 km/h 89% 0.0 mm 5 W/m2
16:31 7 °C 5 °C 998.3 hPa SW 14 km/h 19 km/h 89% 0.0 mm 0 W/m2
16:36 7 °C 5 °C 998.3 hPa SSE 8 km/h 27 km/h 89% 0.0 mm 0 W/m2
16:46 7 °C 5 °C 998.6 hPa SW 10 km/h 11 km/h 89% 0.0 mm 0 W/m2
16:51 7 °C 5 °C 998.6 hPa SW 10 km/h 19 km/h 89% 0.0 mm 0 W/m2
16:56 7 °C 5 °C 998.6 hPa SSW 14 km/h 21 km/h 89% 0.0 mm 0 W/m2
17:01 7 °C 5 °C 998.6 hPa SW 8 km/h 14 km/h 89% 0.0 mm 0 W/m2
17:06 6 °C 4 °C 998.6 hPa SW 16 km/h 19 km/h 89% 0.0 mm 0 W/m2
17:11 6 °C 5 °C 998.6 hPa SSW 11 km/h 19 km/h 90% 0.0 mm 0 W/m2
17:16 6 °C 5 °C 998.6 hPa SW 14 km/h 19 km/h 90% 0.0 mm 0 W/m2
17:31 6 °C 5 °C 999.0 hPa SW 8 km/h 18 km/h 90% 0.0 mm 0 W/m2
17:36 6 °C 5 °C 999.0 hPa SW 6 km/h 19 km/h 90% 0.0 mm 0 W/m2
17:41 6 °C 4 °C 999.0 hPa SW 18 km/h 18 km/h 89% 0.0 mm 0 W/m2
17:46 6 °C 4 °C 999.0 hPa SSW 10 km/h 19 km/h 89% 0.0 mm 0 W/m2
17:51 6 °C 4 °C 999.0 hPa SW 11 km/h 18 km/h 89% 0.0 mm 0 W/m2
18:01 6 °C 4 °C 999.0 hPa SSW 5 km/h 11 km/h 88% 0.0 mm 0 W/m2
18:06 6 °C 4 °C 999.3 hPa SW 10 km/h 14 km/h 89% 0.0 mm 0 W/m2
18:11 6 °C 4 °C 999.3 hPa SW 11 km/h 19 km/h 89% 0.0 mm 0 W/m2
18:16 6 °C 4 °C 999.3 hPa SSW 11 km/h 19 km/h 89% 0.0 mm 0 W/m2
18:21 6 °C 4 °C 999.3 hPa SSW 11 km/h 16 km/h 89% 0.0 mm 0 W/m2
18:31 6 °C 4 °C 999.3 hPa South 6 km/h 13 km/h 89% 0.0 mm 0 W/m2
18:36 6 °C 4 °C 999.3 hPa SSW 8 km/h 19 km/h 88% 0.0 mm 0 W/m2
18:41 6 °C 4 °C 999.3 hPa SW 18 km/h 18 km/h 88% 0.0 mm 0 W/m2
18:46 6 °C 4 °C 999.7 hPa SSW 11 km/h 19 km/h 88% 0.0 mm 0 W/m2
18:51 6 °C 4 °C 999.3 hPa SW 11 km/h 18 km/h 87% 0.0 mm 0 W/m2
18:56 6 °C 3 °C 999.7 hPa WSW 13 km/h 23 km/h 86% 0.0 mm 0 W/m2
19:01 6 °C 3 °C 999.7 hPa South 13 km/h 23 km/h 86% 0.0 mm 0 W/m2
19:06 6 °C 3 °C 999.7 hPa SW 10 km/h 19 km/h 86% 0.0 mm 0 W/m2
19:11 6 °C 3 °C 999.7 hPa SW 11 km/h 18 km/h 85% 0.0 mm 0 W/m2
19:16 6 °C 3 °C 999.7 hPa SSW 16 km/h 16 km/h 85% 0.0 mm 0 W/m2
19:21 6 °C 3 °C 1000.0 hPa SSW 18 km/h 26 km/h 85% 0.0 mm 0 W/m2
19:31 6 °C 3 °C 1000.0 hPa WSW 14 km/h 19 km/h 85% 0.0 mm 0 W/m2
19:36 6 °C 3 °C 1000.0 hPa SSW 10 km/h 19 km/h 86% 0.0 mm 0 W/m2
19:41 6 °C 3 °C 1000.0 hPa SSW 18 km/h 18 km/h 86% 0.0 mm 0 W/m2
19:46 6 °C 3 °C 1000.0 hPa SW 13 km/h 16 km/h 86% 0.0 mm 0 W/m2
19:51 5 °C 3 °C 1000.0 hPa SW 6 km/h 18 km/h 86% 0.0 mm 0 W/m2
19:56 5 °C 3 °C 1000.3 hPa SW 10 km/h 19 km/h 86% 0.0 mm 0 W/m2
20:06 5 °C 3 °C 1000.3 hPa SSW 8 km/h 18 km/h 87% 0.0 mm 0 W/m2
20:11 5 °C 3 °C 1000.3 hPa SW 13 km/h 23 km/h 87% 0.0 mm 0 W/m2
20:16 5 °C 3 °C 1000.3 hPa SW 13 km/h 18 km/h 87% 0.0 mm 0 W/m2
20:21 5 °C 3 °C 1000.3 hPa WSW 13 km/h 21 km/h 87% 0.0 mm 0 W/m2
20:26 5 °C 3 °C 1000.7 hPa SW 11 km/h 13 km/h 87% 0.0 mm 0 W/m2
20:31 5 °C 3 °C 1000.7 hPa SW 10 km/h 13 km/h 88% 0.0 mm 0 W/m2
20:36 5 °C 3 °C 1000.7 hPa SSW 10 km/h 16 km/h 88% 0.0 mm 0 W/m2
20:41 5 °C 3 °C 1000.7 hPa SW 11 km/h 19 km/h 88% 0.0 mm 0 W/m2
20:46 5 °C 3 °C 1000.7 hPa SW 13 km/h 21 km/h 88% 0.0 mm 0 W/m2
20:51 5 °C 3 °C 1000.7 hPa SW 6 km/h 18 km/h 88% 0.0 mm 0 W/m2
20:56 5 °C 3 °C 1000.7 hPa SW 13 km/h 18 km/h 88% 0.0 mm 0 W/m2
21:01 5 °C 3 °C 1000.7 hPa SW 10 km/h 18 km/h 88% 0.0 mm 0 W/m2
21:06 5 °C 3 °C 1000.7 hPa South 8 km/h 23 km/h 88% 0.0 mm 0 W/m2
21:11 5 °C 3 °C 1001.0 hPa SSW 6 km/h 11 km/h 88% 0.0 mm 0 W/m2
21:16 5 °C 3 °C 1001.0 hPa South 10 km/h 14 km/h 88% 0.0 mm 0 W/m2
21:21 5 °C 3 °C 1001.0 hPa SW 14 km/h 14 km/h 88% 0.0 mm 0 W/m2
21:26 5 °C 3 °C 1001.0 hPa South 14 km/h 14 km/h 88% 0.0 mm 0 W/m2
21:31 4 °C 3 °C 1001.0 hPa South 13 km/h 13 km/h 88% 0.0 mm 0 W/m2
21:36 4 °C 3 °C 1001.4 hPa SW 3 km/h 13 km/h 88% 0.0 mm 0 W/m2
21:41 4 °C 3 °C 1001.4 hPa WSW 11 km/h 14 km/h 88% 0.0 mm 0 W/m2
21:46 4 °C 3 °C 1001.4 hPa SSE 13 km/h 13 km/h 88% 0.0 mm 0 W/m2
21:51 4 °C 3 °C 1001.4 hPa South 10 km/h 16 km/h 88% 0.0 mm 0 W/m2
21:56 4 °C 3 °C 1001.4 hPa South 11 km/h 16 km/h 88% 0.0 mm 0 W/m2
22:01 4 °C 3 °C 1001.7 hPa SSW 6 km/h 10 km/h 88% 0.0 mm 0 W/m2
22:06 4 °C 3 °C 1001.7 hPa SW 5 km/h 19 km/h 89% 0.0 mm 0 W/m2
22:11 4 °C 3 °C 1001.7 hPa SSE 10 km/h 13 km/h 89% 0.0 mm 0 W/m2
22:16 4 °C 3 °C 1001.7 hPa SSW 6 km/h 14 km/h 89% 0.0 mm 0 W/m2
22:21 4 °C 3 °C 1001.7 hPa SSW 10 km/h 23 km/h 89% 0.0 mm 0 W/m2
22:26 4 °C 3 °C 1001.7 hPa SSW 10 km/h 16 km/h 89% 0.0 mm 0 W/m2
22:31 4 °C 3 °C 1001.7 hPa SSW 19 km/h 19 km/h 89% 0.0 mm 0 W/m2
22:36 4 °C 3 °C 1001.7 hPa SW 13 km/h 18 km/h 89% 0.0 mm 0 W/m2
22:41 4 °C 3 °C 1001.7 hPa SW 5 km/h 13 km/h 88% 0.0 mm 0 W/m2
22:46 4 °C 3 °C 1001.7 hPa SSW 5 km/h 11 km/h 89% 0.0 mm 0 W/m2
22:51 4 °C 3 °C 1001.7 hPa SSW 8 km/h 13 km/h 89% 0.0 mm 0 W/m2
22:56 4 °C 3 °C 1001.7 hPa SW 2 km/h 13 km/h 88% 0.0 mm 0 W/m2
23:01 4 °C 3 °C 1002.0 hPa Calm   8 km/h 88% 0.0 mm 0 W/m2
23:06 4 °C 2 °C 1001.7 hPa SSW 5 km/h 8 km/h 88% 0.0 mm 0 W/m2
23:11 4 °C 2 °C 1002.0 hPa SSW 5 km/h 6 km/h 89% 0.0 mm 0 W/m2
23:16 4 °C 2 °C 1002.0 hPa SSW 10 km/h 10 km/h 89% 0.0 mm 0 W/m2
23:21 4 °C 2 °C 1002.0 hPa South 8 km/h 10 km/h 89% 0.0 mm 0 W/m2
23:26 4 °C 2 °C 1002.0 hPa SSW 5 km/h 11 km/h 89% 0.0 mm 0 W/m2
23:31 4 °C 2 °C 1002.0 hPa SSW 6 km/h 8 km/h 89% 0.0 mm 0 W/m2
23:36 4 °C 2 °C 1002.0 hPa SSW 3 km/h 10 km/h 90% 0.0 mm 0 W/m2
23:41 4 °C 2 °C 1002.0 hPa Calm   10 km/h 90% 0.0 mm 0 W/m2
23:46 4 °C 2 °C 1002.0 hPa South 5 km/h 11 km/h 90% 0.0 mm 0 W/m2
23:51 4 °C 2 °C 1002.0 hPa South 6 km/h 14 km/h 90% 0.0 mm 0 W/m2
23:56 4 °C 2 °C 1002.0 hPa SSW 8 km/h 10 km/h 90% 0.0 mm 0 W/m2
Compliments of Weather Underground - 4 mb